Date,TemperatureHighF,TemperatureAvgF,TemperatureLowF,DewpointHighF,DewpointAvgF,DewpointLowF,HumidityHigh,HumidityAvg,HumidityLow,PressureMaxIn,PressureMinIn,WindSpeedMaxMPH,WindSpeedAvgMPH,GustSpeedMaxMPH,PrecipitationSumIn
2013-9-1,73.0,59.3,50.0,-99.9,-99.9,-99.9,0,0,100,0.00,40.00,0,-999,0,0.00
2013-9-2,66.0,56.9,51.0,-99.9,-99.9,-99.9,0,0,100,0.00,40.00,0,-999,0,0.00
2013-9-3,63.0,56.1,53.0,-99.9,-99.9,-99.9,0,0,100,0.00,40.00,0,-999,0,0.00
2013-9-4,67.0,57.4,48.0,-99.9,-99.9,-99.9,0,0,100,0.00,40.00,0,-999,0,0.00
2013-9-5,64.0,56.1,49.0,-99.9,-99.9,-99.9,0,0,100,0.00,40.00,0,-999,0,0.05
2013-9-6,52.0,49.1,47.0,-99.9,-99.9,-99.9,0,0,100,0.00,40.00,0,-999,0,0.09
2013-9-12,76.0,70.0,54.0,-99.9,-99.9,-99.9,0,0,100,0.00,40.00,0,-999,0,0.00
2013-9-13,73.0,61.4,55.0,-99.9,-99.9,-99.9,0,0,100,0.00,40.00,0,-999,0,0.00
2013-9-14,75.0,67.5,53.0,-99.9,-99.9,-99.9,0,0,100,0.00,40.00,0,-999,0,0.00
2013-9-15,72.0,62.4,53.0,-99.9,-99.9,-99.9,0,0,100,0.00,40.00,0,-999,0,0.00
2013-9-16,50.0,49.1,48.0,-99.9,-99.9,-99.9,0,0,100,0.00,40.00,0,-999,0,0.00
2013-9-17,47.0,45.0,44.0,-99.9,-99.9,-99.9,0,0,100,0.00,40.00,0,-999,0,0.00
2013-9-18,42.0,41.0,40.0,-99.9,-99.9,-99.9,0,0,100,0.00,40.00,0,-999,0,0.00
2013-9-19,58.0,45.6,36.0,-99.9,-99.9,-99.9,0,0,100,0.00,40.00,0,-999,0,0.01
2013-9-20,61.0,50.4,41.0,-99.9,-99.9,-99.9,0,0,100,0.00,40.00,0,-999,0,0.01
2013-9-21,51.0,46.0,43.0,-99.9,-99.9,-99.9,0,0,100,0.00,40.00,0,-999,0,0.00
2013-9-22,44.0,42.5,41.0,-99.9,-99.9,-99.9,0,0,100,0.00,40.00,0,-999,0,0.02
2013-9-23,44.0,41.4,40.0,-99.9,-99.9,-99.9,0,0,100,0.00,40.00,0,-999,0,0.02
2013-9-24,44.0,38.9,34.0,-99.9,-99.9,-99.9,0,0,100,0.00,40.00,0,-999,0,0.00
2013-9-25,43.0,38.9,36.0,-99.9,-99.9,-99.9,0,0,100,0.00,40.00,0,-999,0,0.01
2013-9-26,45.0,39.4,35.0,-99.9,-99.9,-99.9,0,0,100,0.00,40.00,0,-999,0,0.00
2013-9-27,43.0,40.3,34.0,-99.9,-99.9,-99.9,0,0,100,0.00,40.00,0,-999,0,0.01